Regional Weather Roundup
Issued by NWS

Home | Current Version | Previous Version | Graphics & Text | Print | Product List | Glossary On
Versions: 1 2 3 4 5 6 7 8 9 10 11 12 13 14 15 16 17 18 19 20 21 22 23 24 25 26 27 28 29 30 31 32 33 34 35 36 37 38 39 40 41 42 43 44 45 46 47 48 49 50
000
ASUS43 KOAX 210902
RWRNE

WEATHER ROUNDUP FOR NEBRASKA
NATIONAL WEATHER SERVICE OMAHA NE
400 AM CDT MON AUG 21 2017

NOTES: SATELLITE DATA IS BEING USED TO AUGMENT CLOUD COVER ABOVE
       12000 FEET.
       "FAIR" INDICATES FEW OR NO CLOUDS BELOW 12,000 FEET WITH NO
       SIGNIFICANT WEATHER AND/OR OBSTRUCTIONS TO VISIBILITY.


NEZ001>004-019>022-054>056-211000-
NEBRASKA PANHANDLE

CITY           SKY/WX    TMP DP  RH WIND       PRES   REMARKS
SCOTTSBLUFF    CLEAR     65  63  93 E6        30.02F
ALLIANCE       FOG       66  66 100 SE7       30.01F VSB 1/4
CHADRON        PTCLDY    70  64  81 S7        29.96F
GORDON         CLOUDY    67  65  94 SE7       29.99F FOG
KIMBALL        CLOUDY    62  62 100 S5        30.08S
SIDNEY         FOG       62  62 100 S5        30.05S VSB 1/4
$$

NEZ057>060-069>072-079>082-211000-
SOUTHWEST NEBRASKA

CITY           SKY/WX    TMP DP  RH WIND       PRES   REMARKS
NORTH PLATTE   CLOUDY    73  72  96 E6        29.96F FOG
IMPERIAL       PTCLDY    67  63  87 S3        29.97F
LEXINGTON      FOG       68  67  95 NW3       29.94F VSB 1/4
MCCOOK         MOCLDY    73  64  73 SW7       29.94F
OGALLALA       FOG       72  70  96 E5        29.98F VSB 3/4
$$

NEZ005>010-023>029-035>040-094-211000-
NORTH CENTRAL NEBRASKA

CITY           SKY/WX    TMP DP  RH WIND       PRES   REMARKS
VALENTINE      CLEAR     63  60  90 NW3       29.98F
AINSWORTH      CLOUDY    68  68 100 CALM      29.97F FOG
BROKEN BOW     CLOUDY    70  68  93 CALM      29.95F FOG
O`NEILL        MOCLDY    67  67 100 NE6       29.95F FOG
ORD            MOCLDY    66  64  93 N6        29.91F
THEDFORD       CLOUDY    69  69  98 CALM      29.99S FOG
$$

NEZ041-046>049-061>064-073>077-083>087-211000-
SOUTH CENTRAL NEBRASKA

CITY           SKY/WX    TMP DP  RH WIND       PRES   REMARKS
GRAND ISLAND   CLOUDY    73  70  90 SW7       29.93S
AURORA         PTCLDY    73  70  89 S8        29.92S
HASTINGS       CLEAR     74  68  81 S7        29.94S
HEBRON         CLEAR     77  68  73 S9        29.93S
HOLDREGE       PTCLDY    70  64  81 S7        29.94F
KEARNEY        CLEAR     71  67  87 SW5       29.93F
$$

NEZ011>018-030>034-042>045-211000-
NORTHEAST NEBRASKA

CITY           SKY/WX    TMP DP  RH WIND       PRES   REMARKS
NORFOLK        PTCLDY    70  67  90 E13       29.95R
ALBION         PTCLDY    69  68  96 E7        29.93R
BLAIR          CLOUDY    69  63  80 E18G25    30.01R
COLUMBUS       CLEAR     69  68  96 NE8       29.94R
FREMONT        MOCLDY    69  63  79 E16G22    29.98R
TEKAMAH        CLOUDY    71  62  73 SE9       29.98S
WAYNE          CLOUDY    69  66  92 E16G23    29.96S
$$

NEZ050>053-065>068-078-088>093-211000-
SOUTHEAST NEBRASKA

CITY           SKY/WX    TMP DP  RH WIND       PRES   REMARKS
LINCOLN        CLEAR     77  71  82 S7        29.93R
OMAHA EPPLEY   CLOUDY    71  62  73 E20G30    30.01S
BEATRICE       CLEAR     79  71  76 S9        29.94S
FALLS CITY     CLEAR     79  72  79 S8        29.94R
NEBRASKA CITY  CLOUDY    74  74 100 NE9       29.99R
PLATTSMOUTH    CLOUDY    69  63  80 E9G17     30.01R
$$

NEZ044-045-051>053-067-211000-
OMAHA AREA

CITY           SKY/WX    TMP DP  RH WIND       PRES   REMARKS
OMAHA EPPLEY   CLOUDY    71  62  73 E20G30    30.01S
BLAIR          CLOUDY    69  63  80 E18G25    30.01R
FREMONT        MOCLDY    69  63  79 E16G22    29.98R
MILLARD        CLOUDY    72  64  77 SE8       30.00R
OFFUTT AFB     CLOUDY    68  63  84 NE12      30.00R
PLATTSMOUTH    CLOUDY    69  63  80 E9G17     30.01R
WAHOO          FAIR      72  69  88 E18       29.97R
$$




USA.gov is the U.S. government's official web portal to all federal, state and local government web resources and services.